• In Spain
  • List of Countries
  • For 7 days
  • Water Temperature
  • Satellite Maps
  • Weather Map
  • Weather Widgets
  • user-avatar
    Login

    Hourly Weather Lubango

    Today, 16 October, Tuesday

    Time Temperature Precipitation Wind Pressure Humidity
    00:00 +18°C° 0 mm 1 mps 609 mmHg 51%
    01:00 +16°C° 0 mm 1 mps 609 mmHg 53%
    02:00 +16°C° 0 mm 1 mps 609 mmHg 51%
    03:00 +16°C° 0 mm 1 mps 609 mmHg 49%
    04:00 +15°C° 0 mm 1 mps 609 mmHg 47%
    05:00 +18°C° 0 mm 1 mps 610 mmHg 42%
    06:00 +19°C° 0 mm 1 mps 611 mmHg 37%
    07:00 +20°C° 0 mm 1 mps 611 mmHg 32%
    08:00 +23°C° 0 mm 2 mps 612 mmHg 25%
    09:00 +27°C° 0 mm 2 mps 614 mmHg 18%
    10:00 +30°C° 0 mm 3 mps 615 mmHg 11%
    11:00 +31°C° 0 mm 3 mps 614 mmHg 10%
    12:00 +33°C° 0 mm 3 mps 614 mmHg 9%
    13:00 +35°C° 0 mm 3 mps 614 mmHg 8%
    14:00 +34°C° 0 mm 3 mps 613 mmHg 10%
    15:00 +33°C° 0 mm 4 mps 612 mmHg 11%
    16:00 +33°C° 0 mm 4 mps 612 mmHg 12%
    17:00 +29°C° 0 mm 4 mps 611 mmHg 18%
    18:00 +25°C° 0 mm 3 mps 610 mmHg 25%
    19:00 +21°C° 0 mm 3 mps 610 mmHg 31%
    20:00 +20°C° 0 mm 2 mps 610 mmHg 35%
    21:00 +19°C° 0 mm 2 mps 610 mmHg 38%
    22:00 +19°C° 0 mm 1 mps 610 mmHg 41%
    23:00 +18°C° 0 mm 1 mps 609 mmHg 42%

    Tomorrow, 17 October, Wednesday

    Time Temperature Precipitation Wind Pressure Humidity
    00:00 +18°C° 0 mm 1 mps 609 mmHg 44%
    01:00 +16°C° 0 mm 1 mps 609 mmHg 45%
    02:00 +16°C° 0 mm 1 mps 608 mmHg 45%
    03:00 +16°C° 0 mm 1 mps 608 mmHg 44%
    04:00 +15°C° 0 mm 1 mps 608 mmHg 44%
    05:00 +18°C° 0 mm 1 mps 609 mmHg 39%
    06:00 +19°C° 0 mm 1 mps 609 mmHg 34%
    07:00 +21°C° 0 mm 1 mps 610 mmHg 29%
    08:00 +24°C° 0 mm 1 mps 611 mmHg 24%
    09:00 +27°C° 0 mm 2 mps 613 mmHg 19%
    10:00 +30°C° 0 mm 2 mps 614 mmHg 14%
    11:00 +31°C° 0 mm 2 mps 613 mmHg 13%
    12:00 +33°C° 0 mm 3 mps 613 mmHg 13%
    13:00 +34°C° 0 mm 3 mps 613 mmHg 12%
    14:00 +33°C° 0 mm 3 mps 612 mmHg 14%
    15:00 +32°C° 0 mm 4 mps 611 mmHg 16%
    16:00 +30°C° 0 mm 4 mps 610 mmHg 18%
    17:00 +27°C° 0 mm 4 mps 610 mmHg 26%
    18:00 +24°C° 0 mm 3 mps 609 mmHg 34%
    19:00 +20°C° 0 mm 3 mps 609 mmHg 42%
    20:00 +19°C° 0 mm 2 mps 609 mmHg 47%
    21:00 +18°C° 0 mm 2 mps 609 mmHg 51%
    22:00 +18°C° 0 mm 1 mps 609 mmHg 56%
    23:00 +16°C° 0 mm 1 mps 608 mmHg 57%

    Day after tomorrow, 18 October, Thursday

    Time Temperature Precipitation Wind Pressure Humidity
    00:00 +16°C° 0 mm 1 mps 608 mmHg 58%
    01:00 +15°C° 0 mm 1 mps 607 mmHg 59%
    02:00 +15°C° 0 mm 1 mps 607 mmHg 62%
    03:00 +14°C° 0 mm 1 mps 607 mmHg 65%
    04:00 +14°C° 0 mm 1 mps 607 mmHg 68%
    05:00 +15°C° 0 mm 1 mps 607 mmHg 63%
    06:00 +16°C° 0 mm 1 mps 608 mmHg 58%
    07:00 +16°C° 0 mm 0 mps 609 mmHg 53%
    08:00 +22°C° 0 mm 1 mps 610 mmHg 41%
    09:00 +25°C° 0 mm 1 mps 612 mmHg 30%
    10:00 +28°C° 0 mm 2 mps 613 mmHg 19%
    11:00 +29°C° 0 mm 2 mps 612 mmHg 17%
    12:00 +31°C° 0 mm 3 mps 612 mmHg 16%
    13:00 +33°C° 0 mm 3 mps 612 mmHg 14%
    14:00 +31°C° 0 mm 3 mps 611 mmHg 17%
    15:00 +30°C° 0 mm 3 mps 610 mmHg 19%
    16:00 +29°C° 0 mm 3 mps 609 mmHg 21%
    17:00 +26°C° 0 mm 3 mps 609 mmHg 29%
    18:00 +24°C° 0 mm 3 mps 608 mmHg 37%
    19:00 +21°C° 0 mm 3 mps 608 mmHg 45%
    20:00 +19°C° 0 mm 2 mps 608 mmHg 51%
    21:00 +18°C° 0 mm 2 mps 608 mmHg 57%
    22:00 +18°C° 0 mm 1 mps 608 mmHg 63%
    23:00 +16°C° 0 mm 1 mps 607 mmHg 66%

    19 October, Friday

    Time Temperature Precipitation Wind Pressure Humidity
    00:00 +16°C° 0 mm 1 mps 607 mmHg 70%
    01:00 +15°C° 0 mm 1 mps 607 mmHg 73%
    02:00 +15°C° 0 mm 1 mps 607 mmHg 75%
    03:00 +14°C° 0 mm 1 mps 606 mmHg 77%
    04:00 +14°C° 0 mm 1 mps 606 mmHg 79%
    05:00 +15°C° 0 mm 1 mps 607 mmHg 72%
    06:00 +16°C° 0 mm 1 mps 608 mmHg 65%
    07:00 +18°C° 0 mm 1 mps 609 mmHg 59%
    08:00 +21°C° 0 mm 1 mps 610 mmHg 47%
    09:00 +24°C° 0 mm 1 mps 611 mmHg 35%
    10:00 +27°C° 0 mm 1 mps 613 mmHg 24%
    11:00 +29°C° 0 mm 2 mps 612 mmHg 22%
    12:00 +30°C° 0 mm 2 mps 612 mmHg 20%
    13:00 +31°C° 0 mm 2 mps 612 mmHg 18%
    14:00 +30°C° 0 mm 3 mps 611 mmHg 21%
    15:00 +29°C° 0 mm 4 mps 611 mmHg 24%
    16:00 +28°C° 0 mm 5 mps 610 mmHg 27%
    17:00 +26°C° 0.1 mm 4 mps 610 mmHg 35%
    18:00 +23°C° 0.1 mm 4 mps 610 mmHg 43%
    19:00 +20°C° 0.1 mm 3 mps 610 mmHg 52%
    20:00 +20°C° 0 mm 2 mps 610 mmHg 56%
    21:00 +19°C° 0 mm 2 mps 610 mmHg 60%
    22:00 +19°C° 0 mm 1 mps 610 mmHg 64%
    23:00 +19°C° 0 mm 1 mps 609 mmHg 65%

    20 October, Saturday

    Time Temperature Precipitation Wind Pressure Humidity
    00:00 +18°C° 0 mm 1 mps 609 mmHg 66%
    01:00 +18°C° 0 mm 1 mps 609 mmHg 67%
    02:00 +18°C° 0 mm 1 mps 609 mmHg 69%
    03:00 +16°C° 0 mm 1 mps 608 mmHg 71%
    04:00 +14°C° 0 mm 0 mps 608 mmHg 73%
    05:00 +15°C° 0 mm 0 mps 609 mmHg 68%
    06:00 +17°C° 0 mm 0 mps 610 mmHg 62%
    07:00 +18°C° 0 mm 0 mps 611 mmHg 56%
    08:00 +23°C° 0 mm 1 mps 612 mmHg 46%
    09:00 +26°C° 0 mm 1 mps 613 mmHg 35%
    10:00 +29°C° 0 mm 1 mps 614 mmHg 24%
    11:00 +30°C° 0 mm 2 mps 613 mmHg 22%
    12:00 +31°C° 0 mm 2 mps 613 mmHg 20%
    13:00 +33°C° 0 mm 3 mps 612 mmHg 18%
    14:00 +31°C° 0 mm 3 mps 612 mmHg 21%
    15:00 +29°C° 0 mm 4 mps 611 mmHg 24%
    16:00 +28°C° 0 mm 4 mps 610 mmHg 27%
    17:00 +26°C° 0 mm 4 mps 610 mmHg 33%
    18:00 +24°C° 0 mm 3 mps 610 mmHg 39%
    19:00 +21°C° 0 mm 3 mps 609 mmHg 46%
    20:00 +20°C° 0.1 mm 2 mps 609 mmHg 50%
    21:00 +19°C° 0.1 mm 2 mps 609 mmHg 55%
    22:00 +19°C° 0.1 mm 1 mps 609 mmHg 60%
    23:00 +18°C° 0 mm 1 mps 609 mmHg 62%

    21 October, Sunday

    Time Temperature Precipitation Wind Pressure Humidity
    00:00 +18°C° 0 mm 1 mps 608 mmHg 64%
    01:00 +16°C° 0 mm 1 mps 608 mmHg 66%
    02:00 +16°C° 0 mm 1 mps 607 mmHg 65%
    03:00 +16°C° 0 mm 1 mps 607 mmHg 64%
    04:00 +15°C° 0 mm 1 mps 607 mmHg 63%
    05:00 +16°C° 0 mm 0 mps 608 mmHg 56%
    06:00 +17°C° 0 mm 0 mps 609 mmHg 50%
    07:00 +19°C° 0 mm 0 mps 610 mmHg 43%
    08:00 +24°C° 0 mm 1 mps 611 mmHg 34%
    09:00 +27°C° 0 mm 1 mps 612 mmHg 25%
    10:00 +30°C° 0 mm 2 mps 613 mmHg 15%
    11:00 +31°C° 0 mm 2 mps 612 mmHg 14%
    12:00 +34°C° 0 mm 3 mps 612 mmHg 12%
    13:00 +35°C° 0 mm 3 mps 612 mmHg 11%
    14:00 +34°C° 0 mm 4 mps 611 mmHg 12%
    15:00 +33°C° 0 mm 4 mps 610 mmHg 13%
    16:00 +32°C° 0 mm 5 mps 610 mmHg 14%
    17:00 +28°C° 0 mm 4 mps 609 mmHg 19%
    18:00 +25°C° 0 mm 3 mps 609 mmHg 24%
    19:00 +21°C° 0 mm 2 mps 608 mmHg 28%
    20:00 +20°C° 0 mm 2 mps 608 mmHg 32%
    21:00 +19°C° 0 mm 2 mps 608 mmHg 35%
    22:00 +18°C° 0 mm 2 mps 608 mmHg 39%
    23:00 +18°C° 0 mm 1 mps 608 mmHg 40%
    Show more